Theta_e
315 312 312 312 312 314 315 315 314 314 314 316 313 313 314 314 316 316 317 318 318 318 319 319 319 319 321 324 325 325 326 330 334 328 327 326 328 335 343 343 344 344 345 343
313 312 313 313 314 315 315 316 315 314 315 314 313 313 312 313 315 317 318 318 319 317 319 319 320 320 320 320 321 321 322 322 323 322 322 323 323 323 323 323 324 325 331 331
313 314 315 315 315 315 315 315 315 316 316 315 315 314 315 316 317 317 317 317 317 318 321 322 322 322 323 324 325 325 325 325 325 324 323 322 321 321 321 320 320 320 319 319
313 314 315 316 316 315 315 314 316 317 315 315 315 315 315 317 316 316 317 318 319 321 321 321 321 321 321 321 321 321 321 321 321 321 320 320 320 319 318 318 317 317 317 316
315 316 315 316 316 315 316 316 317 316 314 314 315 314 314 315 318 318 316 319 320 320 321 321 321 321 321 321 321 321 320 320 317 315 314 315 315 314 315 315 315 314 315 316
314 316 315 315 316 316 316 315 313 313 312 315 316 314 314 315 316 317 316 318 320 320 321 321 320 320 320 319 319 318 316 315 316 316 316 316 316 316 316 314 314 315 316 315
315 315 315 317 318 317 314 312 314 315 315 315 317 317 315 317 316 316 315 317 319 320 320 319 318 317 318 316 316 316 316 316 317 317 317 317 317 316 316 316 316 316 316 316
314 316 319 320 319 318 317 314 314 318 319 318 317 320 320 316 315 317 318 319 319 319 318 317 317 316 317 317 317 317 317 318 317 317 317 317 317 318 319 319 319 318 318 317
316 320 319 320 319 318 318 318 317 318 318 318 317 318 317 317 316 316 318 318 319 319 318 316 316 317 317 316 316 317 317 317 317 317 316 317 317 317 319 319 318 317 318 319
316 320 319 320 319 319 318 317 319 317 321 322 319 320 319 318 317 316 316 317 317 316 316 316 316 316 316 316 316 316 316 315 315 314 314 314 315 316 316 316 315 315 316 318
316 316 318 318 319 319 319 318 316 317 318 320 320 320 316 317 316 315 310 312 313 313 315 315 315 315 314 314 314 313 313 313 312 312 311 311 311 311 311 312 314 314 314 314
318 315 317 317 317 317 318 319 316 319 320 316 316 318 316 314 315 313 312 313 313 313 313 313 313 313 313 313 312 311 310 309 308 308 308 310 311 312 312 312 312 312 310 311
317 315 317 316 313 317 319 319 315 314 314 317 317 317 315 315 313 312 312 312 312 312 312 312 312 311 310 310 309 308 306 307 309 310 311 311 311 310 309 309 307 306 306 307
316 315 316 318 315 317 320 321 319 317 317 316 316 316 316 315 312 310 311 311 312 311 310 310 310 309 309 308 307 305 306 308 310 310 309 309 309 308 307 306 304 304 303 303
312 316 317 317 317 318 318 319 319 321 320 321 317 313 312 311 310 310 311 311 310 310 310 310 309 309 308 306 305 304 307 309 308 307 307 309 307 306 305 305 304 304 303 302
311 313 315 316 315 316 316 316 318 318 318 320 319 320 311 310 311 310 310 310 310 310 309 309 308 307 306 304 304 307 308 307 305 306 308 307 304 305 304 303 302 301 301 301
312 312 313 316 315 316 317 316 316 316 317 318 320 318 310 310 310 309 309 310 309 309 309 308 307 305 304 305 307 307 306 305 305 307 307 304 303 302 303 303 303 303 303 302
311 311 312 315 315 317 313 313 315 316 315 315 312 310 310 310 311 310 309 309 309 308 307 306 305 304 306 306 305 303 304 304 306 307 305 305 305 304 304 303 304 305 303 303
309 311 316 313 315 314 314 318 318 318 317 312 311 310 310 311 310 309 308 309 308 307 305 304 304 305 304 302 302 302 302 303 303 304 306 306 303 303 305 305 304 304 304 301
312 314 312 316 316 315 312 317 316 316 319 313 311 311 310 309 309 306 308 308 306 305 303 305 304 303 301 302 301 300 301 303 304 305 305 304 304 305 306 306 305 304 303 302
315 315 314 315 310 312 311 315 315 314 313 312 311 310 309 308 308 307 307 306 304 303 304 303 302 300 300 300 299 300 302 305 304 303 304 305 306 306 306 305 303 302 302 302
315 316 316 316 316 313 314 316 316 312 312 311 310 309 308 308 307 306 304 303 303 305 303 302 301 300 300 299 299 300 302 304 302 304 305 306 307 307 304 304 302 300 300 301
316 310 309 309 309 308 315 313 314 313 311 309 308 308 308 306 305 303 302 304 304 301 300 299 298 298 299 298 298 299 302 303 303 305 306 307 308 306 304 301 300 300 300 301
316 315 315 314 314 314 315 313 312 310 309 308 308 307 306 305 303 302 304 302 300 298 298 297 298 298 297 298 299 300 302 300 301 305 306 308 308 306 305 301 300 300 301 300
313 314 314 314 314 314 314 314 314 312 310 308 307 306 305 302 302 303 301 298 298 298 298 298 298 296 296 298 300 301 301 300 301 305 308 308 309 306 305 302 301 300 299 300
309 310 311 310 311 312 313 314 312 309 307 307 306 305 303 301 302 302 299 298 298 297 297 298 297 296 297 298 299 300 300 301 303 306 308 309 308 307 306 304 302 300 300 300
Wind_Speed
4 2 6 9 8 4 3 3 5 5 5 4 7 8 13 10 6 8 14 15 20 25 18 18 16 11 15 18 19 21 19 17 17 15 13 12 14 16 17 18 21 23 21 23
3 5 9 4 6 6 5 3 7 8 5 4 7 11 8 7 7 10 14 12 17 13 10 11 11 9 12 15 14 16 17 17 16 14 13 10 8 8 8 10 13 15 17 19
6 8 3 5 6 5 6 4 5 7 3 2 2 7 3 3 1 1 7 8 10 12 16 20 19 19 20 19 18 17 16 13 10 7 5 6 9 12 15 18 20 20 22 24
5 10 10 7 6 6 6 7 6 6 3 2 3 2 5 3 3 2 9 11 18 28 27 27 26 24 21 20 15 10 7 3 2 6 10 14 17 20 22 24 25 25 27 29
6 3 3 3 4 6 10 5 4 3 5 4 5 5 7 4 1 2 3 16 26 27 27 27 23 19 15 10 6 2 1 5 10 14 16 17 17 19 21 23 25 26 26 27
7 7 4 6 4 3 7 5 7 5 3 3 3 4 5 3 4 1 0 19 23 21 22 20 16 13 10 6 3 3 4 6 13 15 17 19 23 24 25 26 28 28 29 29
2 4 3 4 2 5 6 6 2 2 3 5 1 3 7 3 4 9 9 15 20 21 19 15 11 8 6 3 4 5 8 12 14 16 18 20 24 26 27 28 29 31 32 32
4 3 2 1 3 4 2 5 5 6 4 3 4 4 5 5 7 20 22 21 19 16 13 10 6 6 8 6 9 11 11 13 16 17 19 21 24 27 28 28 28 29 30 32
4 3 2 3 2 4 2 3 3 6 2 3 3 1 5 6 5 13 19 17 17 16 15 8 6 6 9 11 10 10 11 12 15 17 19 21 23 24 27 29 30 31 31 30
5 3 2 3 2 5 4 5 3 3 4 3 3 3 5 6 8 6 5 14 12 8 8 7 7 6 6 4 3 5 6 9 13 16 20 23 25 27 30 31 32 32 32 32
4 4 3 0 1 4 1 2 5 5 3 5 1 4 6 8 4 4 5 6 2 11 13 12 10 7 4 0 5 9 15 20 25 30 33 37 39 42 44 45 46 45 41 36
1 4 3 5 2 3 3 3 3 4 4 2 4 4 2 7 3 5 13 13 14 13 11 9 5 2 5 10 15 20 25 30 35 40 44 48 50 52 52 52 52 52 54 51
5 2 2 7 5 4 2 3 3 4 3 7 6 5 5 6 6 16 20 13 11 6 4 3 6 10 15 19 23 28 32 36 41 45 46 46 43 41 39 38 37 39 40 43
5 3 5 6 4 3 2 2 3 4 3 2 5 6 6 3 7 6 12 12 10 2 5 8 12 16 21 26 29 33 37 43 46 44 41 39 35 31 32 32 32 32 34 35
4 3 2 3 1 2 3 4 5 5 7 6 4 6 6 4 8 8 9 5 2 4 8 13 18 22 25 29 33 38 44 44 41 38 36 33 30 29 28 28 29 31 31 36
4 2 2 1 1 3 5 7 9 7 9 12 11 7 4 7 12 9 5 3 5 6 11 16 21 26 30 34 40 43 43 39 36 35 34 32 28 30 29 27 25 28 33 34
2 3 2 3 2 4 5 13 11 10 10 9 9 8 8 4 7 7 2 2 6 13 19 23 26 30 36 39 42 40 36 34 31 32 32 30 28 28 27 25 27 30 32 33
4 4 2 2 3 3 5 4 5 6 4 10 5 6 6 5 8 7 4 4 11 18 21 25 30 36 37 39 35 32 32 29 28 30 30 30 29 24 26 30 34 34 34 32
3 4 3 2 3 6 8 1 4 4 3 4 7 6 6 5 12 4 6 10 15 19 25 30 32 35 35 32 31 31 29 26 27 28 30 30 24 26 30 35 35 32 36 33
6 3 4 2 2 4 4 3 4 1 2 7 9 4 1 6 1 3 9 13 19 24 28 31 32 32 31 31 29 27 26 26 28 29 30 23 25 29 34 36 37 35 35 36
4 2 6 3 3 6 5 4 4 4 4 9 10 8 5 2 3 3 10 17 22 26 29 30 29 29 30 27 25 25 25 25 28 27 20 23 28 35 36 38 35 36 39 40
5 6 3 4 4 6 1 3 2 5 6 11 8 7 6 4 1 8 15 22 25 29 31 30 29 30 28 25 25 25 25 25 25 19 23 27 30 34 33 32 37 34 33 30
3 5 4 7 5 4 3 7 6 8 13 9 9 6 5 2 8 15 20 23 26 28 30 29 29 31 29 26 24 25 24 23 19 20 23 27 31 29 29 31 32 30 24 17
3 4 2 2 1 5 7 10 10 9 9 8 8 4 4 7 11 15 18 22 26 27 28 28 30 29 28 24 22 21 21 20 20 21 25 28 32 26 28 28 27 24 17 17
2 4 4 4 1 3 4 9 11 10 11 12 8 5 6 8 12 15 17 21 23 26 26 26 27 28 28 25 22 19 19 19 21 21 25 29 29 22 25 25 23 22 15 14
6 6 4 5 8 5 8 16 13 13 15 10 5 4 6 9 12 15 17 20 23 26 30 29 28 29 29 26 23 21 19 18 19 19 23 28 28 23 22 23 21 18 14 11
Wind_Direction
201 157 222 223 207 198 237 234 257 247 240 174 225 216 244 211 211 217 248 245 222 215 213 227 239 219 178 166 165 170 178 186 194 198 210 223 233 250 260 264 266 273 282 285
356 246 246 222 253 218 233 267 288 288 272 118 292 251 236 156 199 220 232 228 229 206 209 220 216 204 203 194 178 166 173 177 182 192 202 214 231 250 265 267 277 287 285 284
179 246 337 205 275 299 279 223 244 214 12 214 74 350 31 148 118 276 256 261 243 177 159 156 160 162 159 159 160 159 157 161 171 192 228 281 298 300 299 298 298 293 290 291
229 265 241 263 251 181 270 272 201 178 118 205 54 273 323 45 350 90 226 197 161 149 148 147 147 147 149 142 139 137 135 132 15 339 328 319 311 307 305 304 303 301 299 296
241 261 327 277 221 168 229 188 132 75 89 81 347 83 270 339 314 323 168 163 151 148 148 146 141 135 136 133 132 129 9 353 345 336 324 312 308 311 305 299 298 301 300 300
231 258 231 219 269 237 147 87 50 47 75 55 254 125 287 235 192 138 292 149 146 140 136 132 136 140 140 147 194 264 310 324 321 317 315 310 307 306 302 303 304 303 303 304
275 243 261 216 233 14 71 70 1 359 16 204 18 66 233 294 181 168 167 156 148 145 150 154 156 165 179 208 259 283 301 311 305 302 300 299 297 295 294 298 296 295 294 297
164 309 184 244 153 161 80 147 155 199 186 235 269 224 253 305 144 154 157 158 162 167 175 184 197 206 205 222 237 241 249 256 261 262 265 270 275 274 271 270 269 274 282 291
171 254 354 49 93 123 166 69 175 98 30 87 241 252 345 34 87 148 168 175 189 199 204 214 231 237 228 240 242 240 257 261 267 276 280 282 282 278 273 270 273 277 273 274
195 153 326 319 101 22 130 166 62 14 145 218 279 250 188 204 183 200 206 205 220 256 260 267 258 222 207 203 231 268 292 305 304 301 299 298 293 288 284 282 282 281 279 273
133 134 259 67 99 178 30 132 68 102 134 163 222 257 220 186 203 220 20 37 117 141 141 142 137 133 130 308 314 313 309 306 304 302 300 297 293 290 288 286 284 283 280 277
354 122 182 213 279 348 138 177 146 155 222 205 156 257 24 143 136 116 110 109 124 122 110 109 111 12 314 314 312 310 310 311 310 309 307 304 301 298 294 290 287 282 277 275
184 75 72 344 3 18 119 72 128 125 86 180 168 247 231 214 113 129 128 122 120 103 89 33 341 332 330 325 320 317 316 315 314 313 311 307 304 302 299 298 298 297 294 284
89 125 163 187 187 149 181 173 138 114 103 232 222 247 280 322 125 132 118 132 136 130 340 336 336 335 329 324 320 317 314 316 317 314 311 310 312 309 308 306 304 305 303 298
84 173 166 216 194 199 233 253 228 183 193 191 236 207 279 170 153 129 119 111 64 349 341 342 335 328 322 318 316 318 319 318 314 312 314 315 313 311 311 311 308 308 305 300
1 178 130 270 308 230 257 250 239 241 222 211 223 257 163 121 117 104 89 31 357 343 335 332 326 321 320 320 319 318 317 314 316 316 316 314 313 313 316 315 311 310 304 308
79 121 94 248 353 321 272 238 233 231 228 208 217 203 158 160 147 152 94 29 350 336 332 327 323 321 320 318 318 317 316 316 316 320 320 317 317 316 318 320 318 315 315 316
132 108 79 291 342 236 241 292 242 215 4 228 105 116 137 148 170 111 78 6 337 331 327 323 320 318 318 318 320 316 315 317 319 321 321 321 318 315 314 315 314 312 311 307
150 113 121 195 233 315 314 2 168 145 8 51 114 128 122 128 169 213 15 337 330 326 322 319 318 318 319 321 321 315 314 315 319 320 317 316 312 313 316 315 313 310 308 301
177 172 131 179 229 227 237 330 303 152 187 180 133 125 144 125 98 261 310 323 324 323 322 322 322 322 323 326 322 317 315 320 325 318 317 315 316 315 316 317 311 312 305 295
143 157 200 188 243 283 245 316 331 101 245 145 146 148 143 141 192 294 315 322 326 326 327 329 328 328 331 329 323 318 319 324 319 319 314 321 324 322 318 321 315 311 300 292
160 167 176 183 197 262 99 305 177 183 123 134 127 127 138 158 258 328 334 334 333 334 336 337 333 334 334 333 328 320 319 320 320 315 320 327 327 327 327 318 315 312 304 289
188 181 179 175 215 239 21 117 140 164 144 145 136 139 130 77 358 347 344 341 341 341 342 342 340 336 338 335 330 321 322 322 316 320 325 326 328 331 327 328 324 320 311 268
193 151 211 150 254 185 168 151 128 134 131 138 122 108 46 19 360 353 349 349 349 349 344 344 344 341 338 337 333 328 327 320 313 321 324 328 333 333 334 328 331 326 319 295
223 136 180 258 183 117 204 199 193 179 169 145 121 85 37 10 10 5 2 5 4 2 357 355 349 347 345 341 338 335 328 319 319 329 326 330 339 334 333 329 333 328 310 295
198 192 180 224 205 178 190 182 173 176 162 150 125 87 31 21 29 21 17 7 2 2 3 359 358 356 353 349 344 339 334 326 323 326 323 330 343 340 327 330 335 342 321 289